Location: Newark
(34.9500°N, 139.9667°E)
Time: 19:46:56
(UTC+00:00)

Transit 2A - Pass Details

Date: 10 December 2019
Orbit: 601 x 957 km, 66.7° (Epoch: 18 January)

Event Time Altitude Azimuth Distance (km) Brightness Sun altitude
Rises 05:30:17 0° 354° (N) 2,874 8.6 18.5°
Reaches altitude 10° 05:33:44 10° 23° (NNE) 2,001 7.7 18.0°
Maximum altitude 05:35:49 13° 51° (NE) 1,836 7.5 17.7°
Drops below altitude 10° 05:37:57 10° 79° (E) 2,061 7.8 17.4°
Sets 05:41:36 0° 107° (ESE) 3,044 8.8 16.9°
